Regional Weather Roundup
Issued by NWS Sterling, VA

Home | Current Version | Previous Version | Graphics & Text | Print | Product List | Glossary On
Versions: 1 2 3 4 5 6 7 8 9 10 11 12 13 14 15 16 17 18 19 20 21 22 23 24 25 26
000
ASUS41 KLWX 171711
RWRLWX

REGIONAL WEATHER ROUNDUP
NATIONAL WEATHER SERVICE BALTIMORE MD/WASHINGTON DC
1200 PM EST SAT FEB 17 2018

Note: "FAIR" indicates few or no clouds below 12,000 feet
with no significant weather and/or obstructions to visibility.
 TC=TEMPERATURE CELSIUS

 * =Non NWS site. Station does not report precipitation (e.g. rain,
    snow, etc.), thunder, or fog.

DCZ001-MDZ009-015-VAZ040>042-051-053>054-171800-
WASHINGTON METRO

CITY           SKY/WX    TMP DP  RH WIND       PRES   REMARKS
WASHINGTON NAT PTSUNNY   43  25  49 SE8       30.33F
DULLES         CLOUDY    42  25  50 SE9G17    30.29F
ANDREWS AFB    CLOUDY    40  24  53 SE8       30.30F WCI  34
FT BELVOIR     PTSUNNY   43  25  48 SE10      30.30F
QUANTICO       PTSUNNY   43  30  60 SE9       30.32F
COLLEGE PARK*  FAIR      40  21  46 SE9       30.31F WCI  34
LEESBURG*      FAIR      43  27  52 S10G17    30.30F
MANASSAS*      CLOUDY    42  25  50 S8        30.30F
GAITHERSBURG*  FAIR      40  24  53 SE12G20   30.29F WCI  33

$$

MDZ006>007-011-014-171800-
BALTIMORE METRO

CITY           SKY/WX    TMP DP  RH WIND       PRES   REMARKS
BWI AIRPORT    PTSUNNY   40  24  53 SE7       30.32F
MD SCIENCE CTR   N/A     40  23  50 MISG      30.36F
MARTIN STATE   PTSUNNY   39  28  65 E8        30.36F WCI  34
ANNAPOLIS      FAIR      41  30  65 SE9       30.34F
FORT MEADE*    FAIR      41  23  48 SE8       30.34F

$$

MDZ012-015-019>023-171800-
MARYLAND EASTERN SHORE

CITY           SKY/WX    TMP DP  RH WIND       PRES   REMARKS
OCEAN CITY     FAIR      42  30  62 E9        30.35F
SALISBURY      FAIR      43  26  51 E10       30.32F
BAY BRIDGE AP* FAIR      41  25  52 SE12      30.34F WCI  34
CAMBRIDGE*     SUNNY     43  25  49 E9        30.34F
EASTON*        PTSUNNY   41  25  52 SE7       30.38F

$$

MDZ017>025-171800-
SOUTHERN MARYLAND

CITY           SKY/WX    TMP DP  RH WIND       PRES   REMARKS
PATUXENT RIVER PTSUNNY   40  29  64 SE7       30.35F
ST INIGOES     FAIR      41  29  62 E10       30.33F WCI  35
LEONARDTOWN*   FAIR      39  28  65 E7        30.35S WCI  34

$$

MDZ003>005-171800-
NORTH CENTRAL MARYLAND

CITY           SKY/WX    TMP DP  RH WIND       PRES   REMARKS
FREDERICK*     SUNNY     39  19  45 S8        30.33F WCI  34
HAGERSTOWN APT FAIR      38  22  52 S13G20    30.26F WCI  30
WESTMINSTER*   FAIR      39  23  52 S9        30.28F WCI  33

$$

MDZ501>502-171800-
WESTERN MARYLAND

CITY           SKY/WX    TMP DP  RH WIND       PRES   REMARKS
OAKLAND*         N/A     27  23  86 SE18G26   30.06F WCI  13
CUMBERLAND*    CLOUDY    36  25  64 SE7       30.26F WCI  30

$$

VAZ025>031-171800-
SHENANDOAH VALLEY

CITY           SKY/WX    TMP DP  RH WIND       PRES   REMARKS
WINCHESTER*    CLOUDY    36  25  64 SE10G16   30.27F WCI  28
FRONT ROYAL*   CLOUDY    39  27  60 SE7       30.25F WCI  34
LURAY*         CLOUDY    37  30  75 SW3       30.24F
NEW MARKET*      N/A     38  27  62 SW5       30.22F WCI  35
STAUNTON*      CLOUDY    35  24  65 S7        30.27F WCI  29
WAYNESBORO*    CLOUDY    34  25  69 SE9G17    30.24F WCI  26

$$

WVZ021-048>050-054>055-171800-
EASTERN WEST VIRGINIA PANHANDLE

CITY           SKY/WX    TMP DP  RH WIND       PRES   REMARKS
MARTINSBURG    CLOUDY    36  23  59 S14       30.27F WCI  27
PETERSBURG*    CLOUDY    35  26  69 CALM      30.19F

$$

VAZ036>039-050-171800-
CENTRAL FOOTHILLS

CITY           SKY/WX    TMP DP  RH WIND       PRES   REMARKS
CHARLOTTESVILL CLOUDY    39  23  52 CALM      30.28F
CULPEPER*      CLOUDY    41  23  49 S5        30.31F
ORANGE*        CLOUDY    37  27  65 CALM      30.29F
GORDONSVILLE*  CLOUDY    38  26  60 CALM      30.29F
WARRENTON*     CLOUDY    42  22  44 S3        30.29F

$$

VAZ055>057-171800-
NORTH AND CENTRAL PIEDMONT

CITY           SKY/WX    TMP DP  RH WIND       PRES   REMARKS
FREDERICKSBRG* CLOUDY    42  29  58 E7        30.30F
STAFFORD*      CLOUDY    42  28  57 SE6       30.35F

$$

NCZ024-NYZ072-PAZ021-071-VAZ022-071-171800-
OTHER REGIONAL OBSERVATIONS

CITY           SKY/WX    TMP DP  RH WIND       PRES   REMARKS
NEW YORK CITY  FAIR      38  20  48 CALM      30.40S
PHILADELPHIA   PTSUNNY   39  20  46 SE12G23   30.35F WCI  32
PITTSBURGH     CLOUDY    32  21  64 SE8       30.14F WCI  25
ROANOKE        CLOUDY    38  30  73 E7        30.25F WCI  33
RICHMOND       CLOUDY    43  30  60 SE8       30.30F
RALEIGH        CLOUDY    46  35  65 E10       30.25F

$$

ANZ530>537-171800-
MARINE OBSERVATIONS

STATION/POSITION TIME  TEMP    WIND        PRES
                       AIR SEA DIR/SP/G
                 (UTC) (F)     (DEG/KT/KT) (MB)
THOMAS PT LIGHT  1700   37 38  190/  4/  4   N/A
BALT KEY BRIDGE  1642   36     120/ 10/ 11 1027.9F
COVE POINT       1642   38     190/  8/ 10 1028.3F
LEWISETTA        1642   39 44  110/ 15/ 17 1027.1F
SOLOMONS ISLAND  1642   38 40  130/  8/  9 1027.6F

$$





USA.gov is the U.S. government's official web portal to all federal, state and local government web resources and services.